This is the latest recevied weather packets stored in our database for station/object W4MLN-3. If no packets are shown the sender has not sent any weather packets the latest 10 day(s).
| Time | Temp. | Humidity | Pressure | Rain* | Wind** | Luminosity | Snow |
|---|---|---|---|---|---|---|---|
| 1788540003 | 32.22° C | 55% | 1021.8 hPa | 0 mm | - | - | - |
| 1788539724 | 32.22° C | 53% | 1021.8 hPa | 0 mm | - | - | - |
| 1788539403 | 31.67° C | 56% | 1022 hPa | 0 mm | - | - | - |
| 1788539103 | 31.67° C | 54% | 1022 hPa | 0 mm | - | - | - |
| 1788538803 | 31.67° C | 53% | 1022 hPa | 0 mm | - | - | - |
| 1788538524 | 31.67° C | 55% | 1021.9 hPa | 0 mm | - | - | - |
| 1788538203 | 31.11° C | 57% | 1021.9 hPa | 0 mm | - | - | - |
| 1788537904 | 31.11° C | 57% | 1022.1 hPa | 0 mm | - | - | - |
| 1788537603 | 30.56° C | 60% | 1022 hPa | 0 mm | - | - | - |
| 1788537303 | 30° C | 60% | 1022.1 hPa | 0 mm | - | - | - |
| 1788537003 | 30° C | 61% | 1022.1 hPa | 0 mm | - | - | - |
| 1788536704 | 30° C | 60% | 1022.1 hPa | 0 mm | - | - | - |
| 1788536403 | 30° C | 60% | 1022.1 hPa | 0 mm | - | - | - |
| 1788536103 | 30.56° C | 61% | 1022 hPa | 0 mm | - | - | - |
| 1788535803 | 30.56° C | 59% | 1022 hPa | 0 mm | - | - | - |
| 1788535504 | 30.56° C | 59% | 1021.9 hPa | 0 mm | - | - | - |
| 1788535221 | 30.56° C | 59% | 1022 hPa | 0 mm | - | - | - |
| 1788534903 | 30.56° C | 58% | 1022 hPa | 0 mm | - | - | - |
| 1788534603 | 30.56° C | 59% | 1022.1 hPa | 0 mm | - | - | - |
| 1788534303 | 30.56° C | 58% | 1022.1 hPa | 0 mm | - | - | - |
| 1788534003 | 30° C | 61% | 1022 hPa | 0 mm | - | - | - |
| 1788533703 | 30° C | 59% | 1022 hPa | 0 mm | - | - | - |
| 1788533403 | 30° C | 61% | 1022 hPa | 0 mm | - | - | - |
| 1788533124 | 29.44° C | 60% | 1022.1 hPa | 0 mm | - | - | - |
| 1788532803 | 29.44° C | 63% | 1022 hPa | 0 mm | - | - | - |
* Rain latest hour (hover to see other rain measurements)
** Current wind speed in m/s (hover to see current wind gust speed)